Home   Weather   Salem   Past weeks
Flag for USA

Past Weather in Salem, Oregon, USA — Yesterday and Last 2 Weeks

Now
43 °F

Passing clouds.


Feels Like: 43 °F
Forecast: 48 / 39 °F
Wind: No wind

Location: McNary Field

Current Time: Jan 20, 2019 at 6:14:32 pm

Latest Report: Jan 20, 2019 at 5:06 pm


Visibility: 10 mi

Pressure: 29.89 "Hg

Humidity: 86%

Dew Point: 39 °F

Location of SalemLocation

Past Weather in Salem — Graph

°F

Salem Temperature Yesterday

Maximum temperature yesterday: 54 °F (at 12:17 am)
Minimum temperature yesterday: 44 °F (at 8:56 pm)
Average temperature yesterday: 50 °F

High & Low Weather Summary for the Past Weeks

 TemperatureHumidityPressure
High60 °F (Jan 10, 3:56 pm)97% (Jan 9, 6:56 am)30.21 "Hg (Jan 9, 6:56 am)
Low27 °F (Jan 14, 5:56 am)44% (Jan 14, 1:56 pm)29.18 "Hg (Jan 5, 6:56 pm)
Average43 °F80%29.89 "Hg
* Reported Jan 5 3:56 pm — Jan 20 3:56 pm, Salem. Weather by CustomWeather, © 2019

Note: Actual official high and low records may vary slightly from our data, if they occured in-between our weather recording intervals... More about our weather records

Advertising

Salem Weather History for the Previous 24 Hours

Scroll right to see more
 ConditionsComfort  
Time TempWeatherWind HumidityBarometerVisibility
3:56 pm
Sun, Jan 20
44 °FBroken clouds.5 mph85%29.88 "Hg10 mi
2:56 pm44 °FLight rain. Cloudy.6 mph85%29.89 "Hg10 mi
1:56 pm45 °FLight rain. Cloudy.No wind82%29.90 "Hg10 mi
1:03 pm45 °FLight rain. Cloudy.No wind82%29.90 "Hg10 mi
11:56 am45 °FLight rain. Cloudy.3 mph80%29.92 "Hg10 mi
10:56 am45 °FLight rain. Cloudy.5 mph82%29.93 "Hg10 mi
10:18 am44 °FLight rain. Cloudy.7 mph85%29.92 "Hg10 mi
9:56 am44 °FLight rain. Cloudy.7 mph89%29.90 "Hg10 mi
8:56 am44 °FLight rain. Fog.9 mph89%29.89 "Hg4 mi
7:56 am45 °FLight rain. More clouds than sun.8 mph90%29.86 "Hg7 mi
6:56 am44 °FLight rain. Fog.9 mph93%29.85 "Hg6 mi
5:56 am44 °FLight rain. Fog.10 mph93%29.84 "Hg6 mi
4:56 am44 °FLight rain. Low clouds.10 mph93%29.87 "Hg7 mi
4:23 am44 °FLight rain. Fog.7 mph93%29.90 "Hg6 mi
3:56 am44 °FLight rain. Fog.7 mph93%29.92 "Hg6 mi
2:56 am44 °FLight rain. Fog.6 mph96%29.97 "Hg6 mi
1:56 am45 °FLow clouds.6 mph93%30.00 "Hg7 mi
1:12 am45 °FFog.6 mph97%30.03 "Hg3 mi
1:07 am45 °FFog.5 mph97%30.03 "Hg1 mi
11:56 pm
Sat, Jan 19
45 °FFog.3 mph97%30.06 "Hg1 mi
11:04 pm45 °FFog.3 mph93%30.08 "Hg4 mi
10:56 pm44 °FFog.3 mph93%30.08 "Hg4 mi
9:56 pm44 °FClear.No wind96%30.10 "Hg7 mi
9:34 pm44 °FFog.No wind93%30.10 "Hg3 mi
8:56 pm44 °FFog.No wind93%30.13 "Hg6 mi
7:56 pm45 °FPassing clouds.No wind93%30.15 "Hg8 mi
6:56 pm45 °FPassing clouds.3 mph93%30.16 "Hg9 mi
Weather by CustomWeather, © 2019

See weather overview

LIVE TOTAL LUNAR ECLIPSE – Watch the eclipse as it happens